Regional Weather Roundup
Issued by NWS

Home | Current Version | Previous Version | Text Only | Print | Product List | Glossary Off
Versions: 1 2 3 4 5 6 7 8 9 10 11 12 13 14 15 16 17 18 19 20 21 22 23 24 25 26 27 28 29 30 31 32 33 34 35 36 37 38 39 40 41 42 43 44 45 46

000
ASUS45 KTFX 071410
RWRMT
MONTANA REGIONAL WEATHER ROUNDUP
NATIONAL WEATHER SERVICE GREAT FALLS MT
700 AM MST SUN FEB 07 2016

NOTE: "FAIR" INDICATES FEW OR NO CLOUDS BELOW 12000 FEET WITH NO
SIGNIFICANT WEATHER AND/OR OBSTRUCTIONS TO VISIBILITY.

MTZ001>007-043-071500-
WEST OF THE DIVIDE

CITY           SKY/WX    TMP DP  RH WIND       PRES   REMARKS
KALISPELL      CLEAR     10   7  87 N3        30.51R
MISSOULA       CLEAR     20  15  81 CALM      30.54R
BUTTE          CLOUDY     6   3  87 CALM      30.43R
MULLAN PASS    PTCLDY    21  15  78 VRB3      30.42R
ANACONDA         N/A     18  10  73 SW3       30.46R
DEER LODGE       N/A     19  12  73 W3        30.48R
HAMILTON         N/A     27  18  69 S3        30.50R
LIBBY            N/A     16  12  86 CALM      30.53R
PLAINS           N/A     24  18  78 CALM      30.52R
THOMPSON FALLS   N/A     22  19  88 CALM      30.57R
$$

MTZ008-052>055-071500-
SOUTHWEST MONTANA

CITY           SKY/WX    TMP DP  RH WIND       PRES   REMARKS
BOZEMAN        CLOUDY    15   9  76 S3        30.44R
DILLON         CLOUDY    23  11  60 S9        30.42R WCI  13
ENNIS          CLEAR     23  12  63 VRB3      30.47R
TWIN BRIDGES     N/A     19   6  57 E7        30.36R WCI  10
$$

MTZ009-010-012-014-046-048-049-054-071500-
EAST SLOPES AND CENTRAL MONTANA

CITY           SKY/WX    TMP DP  RH WIND       PRES   REMARKS
CUT BANK       CLEAR     22  13  68 W13       30.37R WCI  10
GREAT FALLS    CLEAR     20  14  77 SW12      30.39R WCI   8
MALMSTROM AFB  CLEAR     21  16  79 SW9       30.41R WCI  11
HELENA         CLEAR     30  16  56 W7        30.44R WCI  23
CHOTEAU          N/A     28  12  50 W8        30.40R WCI  20
CONRAD           N/A     28  15  58 SW10      30.36R WCI  19
$$

MTZ011-013-016-021-045-047-050-051-071500-
NORTH CENTRAL MONTANA

CITY           SKY/WX    TMP DP  RH WIND       PRES   REMARKS
HAVRE          CLEAR     25  16  68 W10       30.37R WCI  15
LEWISTOWN      CLEAR     26  15  63 NW10      30.34R WCI  16
N BAR RANCH      N/A     25  14  63 NW13G20   30.32R WCI  13
CHINOOK          N/A     27  16  63 W10       30.35R WCI  17
$$

MTZ017>020-022>027-061-062-071500-
NORTHEAST MONTANA

CITY           SKY/WX    TMP DP  RH WIND       PRES   REMARKS
GLASGOW        CLEAR     29  18  63 NW28G35   30.18R WCI  14
JORDAN           N/A     30  17  58 NW21G29   30.25R WCI  17
SIDNEY         MOCLDY    34  18  51 NW31G43   30.03R WCI  20
WOLF POINT     CLEAR     32  20  61 NW26G38   30.13R WCI  18
PLENTYWOOD       N/A     28  21  74 NW33G44   29.95R WCI  12
POPLAR           N/A     30  18  59 NW22G31   30.12R WCI  17
SCOBEY           N/A     28  11  49 NW35      30.05R WCI  11
$$

MTZ028>42-056>058-071500-
SOUTHCENTRAL AND SOUTHEAST MONTANA

CITY           SKY/WX    TMP DP  RH WIND       PRES   REMARKS
BAKER          CLOUDY    32  12  43 NW36G52   30.07R WCI  16
BILLINGS       PTCLDY    27  15  61 NW9       30.35R WCI  18
LIVINGSTON     CLOUDY    27  15  61 W12       30.36R WCI  17
MILES CITY     CLEAR     33  15  47 NW26G39   30.20R WCI  20
EKALAKA          N/A     28  10  46 W28       30.08R WCI  13
FORSYTH          N/A     30  16  55 W14G21    30.28R WCI  20
LAUREL           N/A     33  11  40 W14       30.31R WCI  23
ROUNDUP          N/A     31   9  39 W13       30.22R WCI  21
$$

REGIONAL REPORTS...DAKOTAS

CITY           SKY/WX    TMP DP  RH WIND       PRES   REMARKS
WILLISTON      CLOUDY    31  23  72 NW36G49   29.97R WCI  15
MINOT          FLURRIES  33  20  58 NW33G47   29.75R WCI  18
DICKINSON      FLURRIES  28  22  78 NW30G41   29.90R WCI  12
BEACH          CLOUDY    32  16  51 NW39G56   30.05R WCI  16
CROSBY         CLOUDY    27  23  86 NW31G45   29.93R WCI  10
TIOGA          FLURRIES  27  23  86 NW46G61   29.90R WCI   7
WATFORD CITY   CLOUDY    30  23  74 NW32G52   29.93R WCI  15
BISMARCK       FLURRIES  35  28  75 W21G39    29.80R WCI  24
GRAND FORKS    CLOUDY    36  29  75 NW22      29.53R WCI  25
FARGO          CLOUDY    36  27  69 W21       29.60R WCI  25
BUFFALO SD       N/A     33  13  43 NW46G60   29.96S WCI  16
RAPID CITY     CLEAR     34  10  37 NW38G48   30.11R WCI  19
$$

REGIONAL REPORTS...WYOMING/IDAHO/WASHINGTON

CITY           SKY/WX    TMP DP  RH WIND       PRES   REMARKS
GILLETTE       CLOUDY    30  14  51 NW28G38   30.23R WCI  15
SHERIDAN       CLOUDY    34  16  47 NW17      30.28R WCI  23
BUFFALO WY     MIX PCPN  31  14  49 N30G43    30.24R WCI  16
CODY           PTCLDY    21  12  68 CALM      30.32R
YELLOWSTONE LA   N/A      2  -2  83 W5        30.38R
IDAHO FALLS    FOG       17  14  88 N7        30.52R VSB 1/4 WCI   8
SALMON         CLOUDY     9   5  85 CALM      30.53R
BOISE          CLOUDY    28  26  92 CALM      30.54R FOG
SPOKANE        FOG       27  26  96 E5        30.54R VSB 1/4
$$

REGIONAL REPORTS...ALBERTA

CITY           SKY/WX    TMP DP  RH WIND       PRES   REMARKS
EDMONTON       CLEAR     27  16  63 W14G21    30.27R WCI  15
CALGARY        PTCLDY    30   3  31 W14G22    30.34R WCI  20
LETHBRIDGE     CLEAR     28  14  54 W18       30.39R WCI  16
MEDICINE HAT   CLEAR     23  12  63 W9        30.36R WCI  13
WATERTON GATE    N/A     28  10  47 SW14G22     N/A  WCI  17
CARDSTON         N/A     28  10  47 W12         N/A  WCI  18
MILK RIVER       N/A     23  14  68 W13         N/A  WCI  11
ONEFOUR          N/A     23  14  68 NW15        N/A  WCI  10
$$

REGIONAL REPORTS...SASKATCHEWAN

CITY           SKY/WX    TMP DP  RH WIND       PRES   REMARKS
SWIFT CURRENT  CLEAR     25  18  74 NW24G31   30.15R WCI   9
REGINA         CLOUDY    25  19  80 NW22G32   30.00R WCI  10
SASKATOON      PTCLDY    23  18  80 NW17      30.10R WCI   9
CYPRESS HILLS    N/A     19   9  63 NW12G17     N/A  WCI   7
VAL MARIE        N/A     27  14  59 NW24        N/A  WCI  12
ROCKGLEN         N/A     25  18  74 NW30G43     N/A  WCI   8
ASSINIBOIA       N/A     25  18  74 W14         N/A  WCI  13
$$



USA.gov is the U.S. government's official web portal to all federal, state and local government web resources and services.